Location: College Park
(38.9810°N, 76.9370°W)
Time: 11:53:59
(UTC-04:00)

Envisat - Pass Details

Date: 14 February 2018
Orbit: 764 x 766 km, 98.2° (Epoch: 20 May)

Event Time Altitude Azimuth Distance (km) Brightness Sun altitude
Exits shadow 19:53:27 13° 177° (S) 2,096 5.2 -25.7°
Maximum altitude 19:57:58 67° 258° (WSW) 827 3.2 -26.6°
Drops below altitude 10° 20:03:02 10° 342° (NNW) 2,308 5.7 -27.6°
Sets 20:05:22 0° 345° (NNW) 3,239 6.5 -28.0°
